THOR ABLESTAR DEB, 537

Orbit data source: Space-Track

THOR ABLESTAR DEB, 537 is space debris in LEO originally from a launch on Thu, 29 Jun 1961 UTC launched from the Air Force Eastern Test Range (AFETR). Debris objects in space refer to the collection of defunct objects orbiting the Earth. Examples of debris include non-operational satellites, rocket bodies, and fragments generated from explosions, collisions, or faulty payload assembly.

Loading next visibility...
Identifier
537, 1961-015FW
Orbit
LEO
Country
Flag of USUS
Related business
Manufacturer
Unknown
Mission
Spacecraft
Bus & Motor
Unknown
Mass
Unknown
Launch date (UTC)
1961-06-29 (65 years ago)
Launch vehicle
Unknown
Launch site
Air Force Eastern Test Range (AFETR)
Object type
Payload
Rocket body
Debris
Shape & HBR
Unknown shape, 0.1 m
Radar Cross Section
Small (<0.1 m²)

Expand to show TLE details & history
Last TLE update: 11 hours ago

TLE from 11 hours ago
0 THOR ABLESTAR DEB
1 00537U 61015FW  26104.20697355  .00000127  00000-0  21760-3 0  9997
2 00537  67.2251 265.3978 0176021 338.0460 206.2277 13.65048776  6415
Epoch: 2026-04-14T04:58Z
TLE epoch observation values (Epoch: 2026-04-14T04:58:02.514Z)
Latitude
-3.2507°
Longitude
169.86023°
Altitude
1,137.188 km
Speed
7.226 km/s
True Right ascension
05h 47m 01s
True Declination
-3° 13' 56"
Sunlit
Object was in daylight at epoch
Visualization orbit readout
Latitude
Unknown
Longitude
Unknown
Altitude
Unknown
Speed
Unknown
Apparent Right ascension
Unknown
Apparent Declination
Unknown
Sunlit
N/A
Visualization observer readout
Local Sidereal Time
22:30:56
Azimuth
Unknown
Elevation
Unknown
Doppler factor
Unknown
Orbital elements
Apogee altitude
1,145.914 km
Perigee altitude
885.617 km
Semi-major axis
7,393.902 km
Eccentricity
0.0176
Inclination
67.2251°
RAAN
265.3978°
Arg. of periapsis
338.046°
True anomaly
205.35359°
Mean anomaly
206.2277°
Eccentric anomaly
205.78893°
Mean motion
3.41376 °/min
Orbital period
105.46 mins
BSTAR
0.0002176
Loading maneuver chart data...
Computing Atmospheric mass density...

Documentation

Showing up to 5 results
|